Location: Rodson Ranch
(38.7188°N, 119.3202°W)
Time: 16:42:57
(UTC+00:00)

CZ-4B R/B - Pass Details

Date: 29 October 2020
Orbit: 496 x 647 km, 97.8° (Epoch: 23 November)

Event Time Altitude Azimuth Distance (km) Brightness Sun altitude
Rises 12:55:20 0° 9° (N) 2,839 7.5 -17.4°
Reaches altitude 10° 12:57:33 10° 7° (N) 1,909 6.6 -16.9°
Maximum altitude 13:01:39 68° 285° (WNW) 610 3.7 -16.1°
Drops below altitude 10° 13:05:32 10° 202° (SSW) 1,804 6.3 -15.4°
Sets 13:07:35 0° 200° (SSW) 2,668 7.2 -15.0°
